STARLINK-38347, 100621

Orbit data source: Space-Track

STARLINK-38347, 100621 is a payload satellite owned by SpaceX/Seattle (US) in LEO that was launched on Sun, 06 Sep 2026 UTC launched from the Air Force Western Test Range (AFWTR). Payload-class satellites include a variety of spacecraft equipped with specific instruments for various scientific and technological missions. These include communications satellites like Starlink; space stations such as the ISS; scientific satellites like the Hubble; Earth observation satellites from companies like Planet Labs, Umbra, and HawkEye 360; GPS; miniature CubeSats for education and research; and military/defense satellites.

Not visible in the next 10 days
Identifier
100621, 2026-204G
Orbit
LEO
Country
Flag of USUS
Related business
Manufacturer
SpaceX/Seattle
Mission
Operational spacecraft
Bus & Motor
STARLINK V2MO, Unknown motor
Mass
575 kg wet, ~530 kg dry
Launch date (UTC)
2026-09-06 (5 days ago)
Launch vehicle
Unknown
Launch site
Air Force Western Test Range (AFWTR)
Object type
Payload
Rocket body
Debris
Shape & HBR
BOX + PAN, 17.7 m
Radar Cross Section
RCS unknown

Expand to show TLE details & history
Last TLE update: 1 day ago

TLE from 1 day ago
0 STARLINK-38347
1 A0621U 26204G   26253.43941138  .00059009  55272-5  95131-4 0  9996
2 A0621  69.9974 266.5995 0003877 302.8146  57.2693 16.03614236   628
Epoch: 2026-09-10T10:32Z
TLE epoch observation values (Epoch: 2026-09-10T10:32:45.143Z)
Latitude
-0.00001°
Longitude
118.9343°
Altitude
265.563 km
Speed
7.749 km/s
True Right ascension
17h 46m 23s
True Declination
0° 00' 00"
Sunlit
Object was in daylight at epoch
Visualization orbit readout
Latitude
Unknown
Longitude
Unknown
Altitude
Unknown
Speed
Unknown
Apparent Right ascension
Unknown
Apparent Declination
Unknown
Sunlit
N/A
Visualization observer readout
Local Sidereal Time
02:30:13
Azimuth
Unknown
Elevation
Unknown
Doppler factor
Unknown
Orbital elements
Apogee altitude
264.847 km
Perigee altitude
259.698 km
Semi-major axis
6,640.409 km
Eccentricity
0.00039
Inclination
69.9974°
RAAN
266.5995°
Arg. of periapsis
302.8146°
True anomaly
57.30668°
Mean anomaly
57.2693°
Eccentric anomaly
57.28799°
Mean motion
4.01098 °/min
Orbital period
89.75 mins
BSTAR
0.000095131
Loading maneuver chart data...
Computing Atmospheric mass density...
Loading historical data...
Loading historical data...
Loading historical data...
Loading historical data...
Loading historical data...
Loading historical data...
Loading historical data...

Documentation

Showing up to 5 results
|